EW5925 Weather Reports


time (UTC)temp
C
wind
direction
speed
KPH
gust
KPH
rain 1hr
cm
rain 24hr
cm
rain mn
cm
humidity
%
barometer
mb
20260507113202 17 299 1.6 11.3 0.00 0.00 0.00 53 1016.8
20260507112656 17 311 1.6 11.3 0.00 0.00 0.00 53 1016.7
20260507112154 17 322 0.0 4.8 0.00 0.00 0.00 54 1016.7
20260507111651 18 323 0.0 1.6 0.00 0.00 0.00 54 1016.7
20260507111428 18 323 0.0 4.8 0.00 0.00 0.00 53 1016.7
20260507110650 18 323 0.0 4.8 0.00 0.00 0.00 53 1016.7
20260507110144 18 319 1.6 8.0 0.00 0.00 0.00 53 1016.5
20260507105904 18 319 1.6 8.0 0.00 0.00 0.00 53 1016.3
20260507105140 18 252 0.0 3.2 0.00 0.00 0.00 54 1016.5
20260507104909 18 252 0.0 3.2 0.00 0.00 0.00 52 1016.3
20260507104408 18 252 1.6 4.8 0.00 0.00 0.00 51 1016.3
20260507103634 18 252 1.6 4.8 0.00 0.00 0.00 51 1016.2
20260507103134 18 318 1.6 12.9 0.00 0.00 0.00 51 1016.0
20260507102634 18 315 1.6 12.9 0.00 0.00 0.00 52 1015.8
20260507102132 18 249 1.6 12.9 0.00 0.00 0.00 52 1015.8
20260507101631 18 248 1.6 12.9 0.00 0.00 0.00 51 1015.8
20260507101132 19 322 0.0 4.8 0.00 0.00 0.00 52 1015.8
20260507100628 19 322 0.0 4.8 0.00 0.00 0.00 51 1015.8
20260507100126 19 322 0.0 4.8 0.00 0.00 0.00 50 1015.7
20260507095622 19 322 1.6 4.8 0.00 0.00 0.00 50 1015.6
20260507095120 19 322 1.6 3.2 0.00 0.00 0.00 50 1015.4
20260507094619 20 322 0.0 6.4 0.00 0.00 0.00 50 1015.4
20260507094120 20 322 0.0 6.4 0.00 0.00 0.00 49 1015.5
20260507093621 20 313 1.6 6.4 0.00 0.00 0.00 48 1015.5
20260507093054 20 313 3.2 9.7 0.00 0.00 0.00 47 1015.5
20260507092553 20 294 1.6 9.7 0.00 0.00 0.00 47 1015.4
20260507092050 20 217 0.0 4.8 0.00 0.00 0.00 47 1015.4
20260507091548 20 216 0.0 1.6 0.00 0.00 0.00 47 1015.4
20260507091048 20 216 0.0 4.8 0.00 0.00 0.00 46 1015.4
20260507090559 21 216 0.0 4.8 0.00 0.00 0.00 45 1015.2
20260507090056 21 216 1.6 4.8 0.00 0.00 0.00 45 1015.2
20260507085542 21 216 1.6 6.4 0.00 0.00 0.00 46 1015.1
20260507085040 21 252 1.6 6.4 0.00 0.00 0.00 45 1015.0
20260507084538 21 291 1.6 4.8 0.00 0.00 0.00 44 1015.0
20260507084037 21 260 1.6 4.8 0.00 0.00 0.00 44 1014.9
20260507083534 21 272 1.6 6.4 0.00 0.00 0.00 44 1014.9
20260507083027 21 314 1.6 6.4 0.00 0.00 0.00 43 1014.9
20260507082526 21 220 1.6 11.3 0.00 0.00 0.00 43 1014.8
20260507082024 21 284 3.2 11.3 0.00 0.00 0.00 44 1014.7
20260507081525 21 331 1.6 8.0 0.00 0.00 0.00 43 1014.5
20260507081004 22 288 1.6 4.8 0.00 0.00 0.00 42 1014.4
20260507080505 22 267 1.6 4.8 0.00 0.00 0.00 43 1014.3
20260507075942 22 267 1.6 3.2 0.00 0.00 0.00 42 1014.3
20260507075440 22 267 1.6 12.9 0.00 0.00 0.00 42 1014.3
20260507074940 22 268 1.6 12.9 0.00 0.00 0.00 41 1014.3
20260507074436 22 26 1.6 11.3 0.00 0.00 0.00 42 1014.3
20260507073935 22 270 3.2 11.3 0.00 0.00 0.00 42 1014.2
20260507073441 22 258 1.6 12.9 0.00 0.00 0.00 44 1014.0
20260507072933 22 208 1.6 12.9 0.00 0.00 0.00 45 1014.0
20260507072433 22 308 0.0 3.2 0.00 0.00 0.00 45 1013.9
20260507071927 22 308 0.0 3.2 0.00 0.00 0.00 45 1013.8
20260507071643 23 308 0.0 3.2 0.00 0.00 0.00 45 1013.7
20260507070922 23 308 1.6 11.3 0.00 0.00 0.00 44 1013.5
20260507070643 23 308 3.2 11.3 0.00 0.00 0.00 44 1013.5
20260507065919 23 333 3.2 16.1 0.00 0.00 0.00 45 1013.4
20260507065642 23 303 4.8 16.1 0.00 0.00 0.00 44 1013.2
20260507064922 23 313 3.2 11.3 0.00 0.00 0.00 45 1013.3
20260507064402 23 306 3.2 11.3 0.00 0.00 0.00 44 1013.4
20260507064123 23 317 3.2 12.9 0.00 0.00 0.00 44 1013.4
20260507063404 23 272 3.2 12.9 0.00 0.00 0.00 44 1013.4
20260507062901 23 318 3.2 12.9 0.00 0.00 0.00 45 1013.4
20260507062401 23 316 3.2 12.9 0.00 0.00 0.00 45 1013.3
20260507061900 24 301 1.6 12.9 0.00 0.00 0.00 46 1013.3
20260507061358 24 318 1.6 12.9 0.00 0.00 0.00 47 1013.3
20260507060856 24 297 1.6 12.9 0.00 0.00 0.00 46 1013.2
20260507060354 24 322 1.6 12.9 0.00 0.00 0.00 46 1013.2
20260507055855 25 313 1.6 12.9 0.00 0.00 0.00 47 1013.1
20260507055353 25 229 3.2 14.5 0.00 0.00 0.00 45 1013.2
20260507054853 25 315 1.6 14.5 0.00 0.00 0.00 46 1013.1
20260507054350 25 342 1.6 8.0 0.00 0.00 0.00 46 1013.1
20260507053850 25 317 3.2 6.4 0.00 0.00 0.00 48 1013.0
20260507053615 25 289 3.2 12.9 0.00 0.00 0.00 47 1012.8
20260507053114 25 278 3.2 12.9 0.00 0.00 0.00 47 1012.7
20260507052549 26 299 3.2 11.3 0.00 0.00 0.00 49 1012.9
20260507051826 26 328 3.2 11.3 0.00 0.00 0.00 48 1012.8
20260507051325 25 311 3.2 14.5 0.00 0.00 0.00 49 1012.8
20260507050821 25 333 3.2 14.5 0.00 0.00 0.00 49 1012.9
20260507050320 25 313 3.2 14.5 0.00 0.00 0.00 49 1012.9
20260507045818 26 278 3.2 14.5 0.00 0.00 0.00 49 1012.9
20260507045315 26 333 3.2 12.9 0.00 0.00 0.00 49 1012.9
20260507044813 26 259 3.2 12.9 0.00 0.00 0.00 48 1013.0
20260507044311 26 339 1.6 12.9 0.00 0.00 0.00 50 1013.1
20260507043810 26 298 3.2 12.9 0.00 0.00 0.00 50 1013.2
20260507043527 26 322 3.2 17.7 0.00 0.00 0.00 50 1013.3
20260507042805 26 262 3.2 17.7 0.00 0.00 0.00 50 1013.3
20260507042307 26 305 4.8 17.7 0.00 0.00 0.00 51 1013.3
20260507041758 26 310 4.8 17.7 0.00 0.00 0.00 49 1013.3
20260507041255 26 310 3.2 12.9 0.00 0.00 0.00 51 1013.4
20260507040755 26 314 3.2 9.7 0.00 0.00 0.00 52 1013.2
20260507040257 26 239 3.2 9.7 0.00 0.00 0.00 52 1013.3
20260507035735 26 258 3.2 17.7 0.00 0.00 0.00 53 1013.5
20260507035237 26 295 3.2 19.3 0.00 0.00 0.00 52 1013.4
20260507034955 26 280 3.2 19.3 0.00 0.00 0.00 52 1013.3
20260507034233 26 242 3.2 9.7 0.00 0.00 0.00 53 1013.3
20260507033733 26 269 3.2 11.3 0.00 0.00 0.00 53 1013.3
20260507033228 26 266 3.2 11.3 0.00 0.00 0.00 54 1013.2
20260507032726 26 335 3.2 11.3 0.00 0.00 0.00 55 1013.3
20260507032223 26 306 3.2 12.9 0.00 0.00 0.00 54 1013.4
20260507031723 26 250 3.2 14.5 0.00 0.00 0.00 55 1013.5
20260507031220 27 295 3.2 12.9 0.00 0.00 0.00 55 1013.5
20260507030716 27 268 3.2 11.3 0.00 0.00 0.00 55 1013.6
20260507030211 27 266 3.2 11.3 0.00 0.00 0.00 58 1013.5
20260507025709 27 256 3.2 11.3 0.00 0.00 0.00 58 1013.4
20260507025207 27 336 3.2 11.3 0.00 0.00 0.00 58 1013.5
20260507024720 27 308 3.2 14.5 0.00 0.00 0.00 59 1013.6
20260507024210 26 325 3.2 14.5 0.00 0.00 0.00 60 1013.7
20260507023641 26 225 3.2 14.5 0.00 0.00 0.00 61 1013.6
20260507023114 26 330 4.8 14.5 0.00 0.00 0.00 61 1013.8
20260507022547 27 277 4.8 12.9 0.00 0.00 0.00 61 1013.8
20260507022242 27 305 4.8 16.1 0.00 0.00 0.00 63 1014.0
20260507021458 27 315 4.8 16.1 0.00 0.00 0.00 64 1014.3
20260507021159 26 247 3.2 11.3 0.00 0.00 0.00 65 1014.3
20260507020407 26 328 3.2 9.7 0.00 0.00 0.00 67 1014.4
20260507015841 26 260 3.2 12.9 0.00 0.00 0.00 68 1014.4
20260507015314 26 250 3.2 14.5 0.00 0.00 0.00 68 1014.5
20260507014753 26 289 3.2 14.5 0.00 0.00 0.00 67 1014.5
20260507014256 26 257 3.2 12.9 0.00 0.00 0.00 67 1014.7
20260507013727 26 308 3.2 11.3 0.00 0.00 0.00 67 1014.8
20260507013200 26 291 4.8 20.9 0.00 0.00 0.00 68 1014.8
20260507012634 26 236 4.8 20.9 0.00 0.00 0.00 68 1015.0
20260507012118 26 314 3.2 12.9 0.00 0.00 0.00 70 1015.1
20260507011538 26 316 3.2 9.7 0.00 0.00 0.00 72 1015.1
20260507011231 25 226 3.2 8.0 0.00 0.00 0.00 73 1015.2
20260507010449 25 249 3.2 14.5 0.00 0.00 0.00 73 1015.2
20260507005926 25 274 3.2 14.5 0.00 0.00 0.00 74 1015.3
20260507005357 24 292 1.6 12.9 0.00 0.00 0.00 76 1015.4
20260507004828 24 252 1.6 8.0 0.00 0.00 0.00 77 1015.5
20260507004302 23 243 3.2 8.0 0.00 0.00 0.00 79 1015.6
20260507003736 23 252 1.6 8.0 0.00 0.00 0.00 80 1015.6
20260507003235 23 306 1.6 8.0 0.00 0.00 0.00 81 1015.6
20260507002731 22 300 1.6 4.8 0.00 0.00 0.00 81 1015.7
20260507002230 22 300 1.6 6.4 0.00 0.00 0.00 81 1015.9
20260507001729 22 300 1.6 9.7 0.00 0.00 0.00 82 1015.9
20260507001450 22 256 1.6 9.7 0.00 0.00 0.00 82 1016.0
20260507000943 22 317 3.2 9.7 0.00 0.00 0.00 82 1016.2
20260507000223 22 306 3.2 9.7 0.00 0.00 0.00 82 1016.2
20260506235718 22 323 1.6 9.7 0.00 0.00 0.00 83 1016.5
20260506235218 22 282 1.6 6.4 0.00 0.00 0.00 84 1016.6
20260506234721 22 303 1.6 6.4 0.00 0.00 0.00 84 1016.7
20260506234220 22 251 1.6 6.4 0.00 0.00 0.00 85 1016.6
20260506233710 22 249 1.6 6.4 0.00 0.00 0.00 85 1016.8
20260506233211 21 263 1.6 6.4 0.00 0.00 0.00 85 1016.8
20260506232709 21 266 1.6 6.4 0.00 0.00 0.00 85 1016.9
20260506232203 21 241 1.6 14.5 0.00 0.00 0.00 86 1016.8
20260506231919 21 237 1.6 14.5 0.00 0.00 0.00 86 1016.9
20260506231159 21 266 1.6 14.5 0.00 0.00 0.00 86 1016.9
20260506230700 21 232 3.2 14.5 0.00 0.00 0.00 87 1016.8
20260506230134 21 254 4.8 14.5 0.00 0.00 0.00 88 1016.8
20260506225607 21 236 3.2 14.5 0.00 0.00 0.00 89 1016.8
20260506225324 21 213 1.6 16.1 0.00 0.00 0.00 90 1016.8
20260506224605 21 213 3.2 16.1 0.00 0.00 0.00 90 1016.8
20260506224101 20 254 4.8 17.7 0.00 0.00 0.00 91 1016.9
20260506223601 20 245 4.8 17.7 0.00 0.00 0.00 92 1016.8
20260506223059 20 256 4.8 17.7 0.00 0.00 0.00 93 1016.7
20260506222559 20 245 4.8 17.7 0.00 0.00 0.00 93 1016.5
20260506222059 20 259 3.2 11.3 0.00 0.00 0.00 94 1016.5
20260506221600 19 241 4.8 12.9 0.00 0.00 0.00 94 1016.6
20260506221059 19 245 3.2 12.9 0.00 0.00 0.00 94 1016.7
20260506220559 18 237 3.2 12.9 0.00 0.00 0.00 94 1016.6
20260506215532 18 247 3.2 14.5 0.00 0.00 0.00 94 1016.3
20260506215022 18 254 3.2 12.9 0.00 0.00 0.00 94 1016.2
20260506214523 18 260 3.2 9.7 0.00 0.00 0.00 94 1016.2
20260506214249 17 237 1.6 8.0 0.00 0.00 0.00 94 1016.1
20260506213521 17 231 1.6 6.4 0.00 0.00 0.00 94 1016.1
20260506213246 17 232 1.6 6.4 0.00 0.00 0.00 94 1016.1
20260506212521 17 235 0.0 4.8 0.00 0.00 0.00 94 1016.1
20260506212017 17 235 0.0 0.0 0.00 0.00 0.00 94 1016.2
20260506211517 17 235 0.0 0.0 0.00 0.00 0.00 94 1016.3
20260506211016 17 235 0.0 0.0 0.00 0.00 0.00 94 1016.2
20260506210729 17 235 0.0 6.4 0.00 0.00 0.00 94 1016.2
20260506210007 17 235 1.6 6.4 0.00 0.00 0.00 94 1016.1
20260506205505 17 235 1.6 6.4 0.00 0.00 0.00 94 1016.1
20260506205004 17 256 1.6 6.4 0.00 0.00 0.00 94 1016.1
20260506204502 17 189 1.6 6.4 0.00 0.00 0.00 94 1016.1
20260506204222 17 230 1.6 4.8 0.00 0.00 0.00 94 1016.1
20260506203505 17 227 1.6 8.0 0.00 0.00 0.00 94 1016.1
20260506203001 17 227 1.6 8.0 0.00 0.00 0.00 94 1016.0
20260506202721 16 133 1.6 4.8 0.00 0.00 0.00 93 1016.0
20260506202001 16 129 0.0 4.8 0.00 0.00 0.00 93 1016.0
20260506201459 16 129 0.0 4.8 0.00 0.00 0.00 93 1015.9
20260506200958 16 129 0.0 3.2 0.00 0.00 0.00 93 1015.9
20260506200459 16 129 0.0 3.2 0.00 0.00 0.00 93 1015.8
20260506200217 16 129 0.0 4.8 0.00 0.00 0.00 93 1015.7
20260506195716 16 129 0.0 4.8 0.00 0.00 0.00 93 1015.7
20260506194955 16 129 0.0 1.6 0.00 0.00 0.00 93 1015.5
20260506194447 16 129 0.0 1.6 0.00 0.00 0.00 93 1015.4
20260506194211 16 129 0.0 0.0 0.00 0.00 0.00 93 1015.3
20260506193443 16 129 0.0 1.6 0.00 0.00 0.00 93 1015.2
20260506192945 16 129 0.0 1.6 0.00 0.00 0.00 93 1015.1
20260506192421 16 129 0.0 0.0 0.00 0.00 0.00 93 1015.1
20260506191919 16 129 0.0 0.0 0.00 0.00 0.00 93 1015.2
20260506191418 16 130 0.0 0.0 0.00 0.00 0.00 93 1015.1
20260506190915 16 129 0.0 0.0 0.00 0.00 0.00 93 1015.1
20260506190640 16 130 0.0 3.2 0.00 0.00 0.00 93 1015.1
20260506185915 17 130 0.0 3.2 0.00 0.00 0.00 92 1015.1
20260506185413 17 130 0.0 1.6 0.00 0.00 0.00 92 1015.2
20260506185139 17 129 0.0 1.6 0.00 0.00 0.00 92 1015.1
20260506184409 17 129 0.0 0.0 0.00 0.00 0.00 92 1015.2
20260506183909 17 129 0.0 0.0 0.00 0.00 0.00 92 1015.3
20260506183400 17 129 0.0 0.0 0.00 0.00 0.00 92 1015.3
20260506182859 17 130 0.0 1.6 0.00 0.00 0.00 92 1015.2
20260506182621 17 129 0.0 1.6 0.00 0.00 0.00 92 1015.2
20260506181858 17 129 0.0 0.0 0.00 0.00 0.00 92 1015.2
20260506181343 17 129 0.0 1.6 0.00 0.00 0.00 92 1015.2
20260506181305 17 129 0.0 1.6 0.00 0.00 0.00 92 1015.3
20260506180932 17 129 0.0 1.6 0.00 0.00 0.00 92 1015.2
20260506175834 17 130 0.0 0.0 0.00 0.00 0.00 92 1015.3
20260506175330 17 129 0.0 0.0 0.00 0.00 0.00 92 1015.4
20260506174828 17 130 0.0 3.2 0.00 0.00 0.00 92 1015.3
20260506174547 17 129 0.0 3.2 0.00 0.00 0.00 92 1015.4
20260506173826 17 129 0.0 3.2 0.00 0.00 0.00 92 1015.4
20260506173544 17 129 0.0 3.2 0.00 0.00 0.00 92 1015.4
20260506172821 17 129 0.0 0.0 0.00 0.00 0.00 92 1015.3
20260506172314 17 129 0.0 0.0 0.00 0.00 0.00 92 1015.3
20260506172040 17 129 0.0 0.0 0.00 0.00 0.00 92 1015.4
20260506171534 17 129 0.0 0.0 0.00 0.00 0.00 92 1015.4
20260506171250 17 129 0.0 1.6 0.00 0.00 0.00 92 1015.4
20260506170301 17 129 0.0 1.6 0.00 0.00 0.00 92 1015.5
20260506165759 17 129 0.0 4.8 0.00 0.00 0.00 92 1015.5
20260506165259 17 129 0.0 4.8 0.00 0.00 0.00 92 1015.7
20260506165017 17 129 1.6 4.8 0.00 0.00 0.00 92 1015.7
20260506164257 17 129 1.6 4.8 0.00 0.00 0.00 92 1015.8
20260506163754 17 129 0.0 3.2 0.00 0.00 0.00 92 1015.9
20260506163254 17 129 0.0 3.2 0.00 0.00 0.00 91 1016.0
20260506162753 17 129 0.0 3.2 0.00 0.00 0.00 91 1015.9
20260506162736 17 130 0.0 3.2 0.00 0.00 0.00 92 1015.9
20260506161749 17 130 0.0 1.6 0.00 0.00 0.00 92 1015.9
20260506161247 17 129 0.0 1.6 0.00 0.00 0.00 92 1015.8
20260506160800 17 129 0.0 1.6 0.00 0.00 0.00 91 1015.7
20260506160235 17 130 0.0 0.0 0.00 0.00 0.00 91 1015.8
20260506155654 17 130 0.0 0.0 0.00 0.00 0.00 91 1015.8
20260506155126 17 130 0.0 0.0 0.00 0.00 0.00 91 1015.9
20260506154558 18 129 0.0 0.0 0.00 0.00 0.00 91 1015.8
20260506154033 18 129 0.0 0.0 0.00 0.00 0.00 91 1015.8
20260506153506 18 129 0.0 0.0 0.00 0.00 0.00 91 1015.8
20260506152940 18 129 0.0 0.0 0.00 0.00 0.00 91 1015.8
20260506152412 18 129 0.0 3.2 0.00 0.00 0.00 91 1016.0
20260506151846 18 129 0.0 3.2 0.00 0.00 0.00 91 1016.0
20260506151321 18 129 0.0 3.2 0.00 0.00 0.00 91 1016.0
20260506150757 18 129 0.0 0.0 0.00 0.00 0.00 91 1016.1
20260506150230 18 130 0.0 0.0 0.00 0.00 0.00 91 1016.2
20260506145705 18 129 0.0 0.0 0.00 0.00 0.00 91 1016.2
20260506145407 18 130 0.0 0.0 0.00 0.00 0.00 91 1016.2
20260506144613 18 130 0.0 0.0 0.00 0.00 0.00 91 1016.3
20260506144045 18 129 0.0 0.0 0.00 0.00 0.00 91 1016.3
20260506143521 18 130 0.0 0.0 0.00 0.00 0.00 91 1016.2
20260506142956 18 130 0.0 0.0 0.00 0.00 0.00 91 1016.5
20260506142653 18 129 0.0 1.6 0.00 0.00 0.00 91 1016.6
20260506141918 18 129 0.0 1.6 0.00 0.00 0.00 91 1016.6
20260506141637 18 129 0.0 3.2 0.00 0.00 0.00 90 1016.7
20260506140854 18 129 0.0 3.2 0.00 0.00 0.00 90 1016.6
20260506140342 18 129 0.0 3.2 0.00 0.00 0.00 90 1016.6
20260506135840 18 130 0.0 3.2 0.00 0.00 0.00 90 1016.6
20260506135340 18 130 0.0 3.2 0.00 0.00 0.00 89 1016.6
20260506134839 18 130 0.0 3.2 0.00 0.00 0.00 89 1016.5
20260506134336 18 130 0.0 3.2 0.00 0.00 0.00 89 1016.6
20260506133834 18 130 0.0 0.0 0.00 0.00 0.00 89 1016.6
20260506133336 18 130 0.0 0.0 0.00 0.00 0.00 89 1016.7
20260506132832 18 130 0.0 0.0 0.00 0.00 0.00 89 1016.7
20260506132330 18 130 0.0 0.0 0.00 0.00 0.00 89 1016.7
20260506131828 18 130 0.0 0.0 0.00 0.00 0.00 89 1016.7
20260506131330 18 130 0.0 0.0 0.00 0.00 0.00 88 1016.8
20260506131047 18 130 0.0 0.0 0.00 0.00 0.00 88 1016.9
20260506130326 19 130 0.0 0.0 0.00 0.00 0.00 88 1016.9
20260506125825 19 130 0.0 0.0 0.00 0.00 0.00 88 1016.9
20260506125551 19 130 0.0 0.0 0.00 0.00 0.00 88 1016.9
20260506124800 19 130 0.0 0.0 0.00 0.00 0.00 88 1017.0
20260506124232 19 130 0.0 0.0 0.00 0.00 0.00 88 1017.0
20260506123705 19 130 0.0 1.6 0.00 0.00 0.00 88 1017.1
20260506123200 19 129 0.0 1.6 0.00 0.00 0.00 88 1017.2
20260506122650 19 130 0.0 3.2 0.00 0.00 0.00 88 1017.2
20260506122125 19 130 0.0 3.2 0.00 0.00 0.00 88 1016.9
20260506121615 19 130 0.0 1.6 0.00 0.00 0.00 88 1016.9
20260506121114 20 130 0.0 3.2 0.00 0.00 0.00 88 1017.0
20260506120549 20 130 0.0 3.2 0.00 0.00 0.00 88 1017.2
20260506120028 20 130 0.0 3.2 0.00 0.00 0.00 88 1017.2
20260506115458 20 129 1.6 3.2 0.00 0.00 0.00 88 1017.2
20260506114954 20 129 1.6 4.8 0.00 0.00 0.00 88 1017.2
20260506114453 20 129 1.6 4.8 0.00 0.00 0.00 89 1017.3
20260506114213 20 130 1.6 3.2 0.00 0.00 0.00 89 1017.4
20260506113721 20 130 1.6 3.2 0.00 0.00 0.00 88 1017.4